Wind_Speed
14 16 17 17 17 16 15 15 14 14 14 14 14 14 15 14 14 13 12 11 10 9 8 7 6 5 4 3 3 2 2 1 2 3 7 7 5 3 3 3 3 3 3 4 7 12 15 10 6 4 8 5 3 1 8 7 4 7 7 10 12 10 6 6 4 3 7 3 5 7 5 8 6 6 8 9 10 11 14 13 13 15 13 12 16 21 25 29
14 16 17 17 17 17 16 15 15 15 14 15 15 15 15 14 14 13 11 10 9 9 8 7 6 4 3 4 4 5 5 4 2 4 8 7 5 3 2 3 4 4 5 2 7 13 8 2 3 4 6 1 3 3 7 7 4 5 8 12 10 7 6 7 5 4 6 6 8 8 7 9 8 11 11 11 10 10 15 12 9 13 14 12 12 16 21 25
15 16 17 17 17 17 17 16 15 15 15 15 15 15 15 14 14 13 11 10 9 9 8 7 5 3 4 5 7 8 8 8 4 3 7 8 6 4 4 4 5 4 6 6 12 9 6 6 0 4 4 5 4 4 4 4 5 5 8 11 8 10 7 6 6 6 7 9 11 10 10 10 10 12 9 9 10 10 12 7 6 9 10 6 6 12 16 16
15 16 17 17 18 18 17 16 16 15 15 15 15 15 15 14 14 12 11 10 9 8 7 7 6 4 5 6 10 11 12 11 3 3 8 8 7 5 5 5 5 4 3 5 13 9 4 5 4 5 3 5 4 5 3 5 7 5 9 9 9 11 8 6 7 7 7 9 10 8 8 10 9 7 6 7 9 9 7 4 8 8 6 6 8 12 14 14
15 16 17 18 18 18 18 17 16 15 15 15 15 14 14 14 13 12 11 10 8 8 7 7 6 5 4 5 9 10 11 8 2 6 9 8 7 5 5 5 5 5 3 5 11 8 6 8 6 4 4 5 4 6 5 4 7 7 9 8 10 10 8 7 5 6 8 8 7 7 7 9 9 9 10 9 10 9 7 4 8 7 7 12 12 16 19 20
15 15 17 18 18 18 18 17 16 15 15 14 14 14 14 14 13 12 11 9 9 8 7 6 5 6 6 6 7 6 7 2 5 9 11 9 8 5 4 4 4 2 4 7 11 7 7 5 7 7 6 6 4 5 5 5 8 9 7 6 8 8 8 7 5 6 9 8 7 7 8 10 9 9 9 7 9 10 8 6 6 7 9 11 13 19 22 22
14 15 16 17 18 18 17 17 16 15 15 14 14 13 13 13 13 12 10 10 8 7 6 5 5 7 7 8 8 8 8 4 8 11 14 12 8 6 4 3 4 1 3 9 8 5 4 1 7 7 5 6 5 4 6 6 6 7 6 5 6 6 9 10 8 8 9 8 8 8 9 9 8 7 6 5 8 10 9 8 7 8 9 8 11 18 20 15
15 15 15 16 17 17 17 16 16 15 14 14 14 13 14 13 13 12 10 10 8 7 6 5 6 7 9 10 9 13 8 9 14 15 15 12 7 7 5 2 2 3 7 7 2 4 6 3 5 4 3 7 5 5 8 7 5 6 7 7 6 8 9 7 6 8 8 8 8 8 8 7 8 8 7 6 7 8 11 12 8 7 7 6 8 15 18 14
16 16 15 15 17 17 16 16 16 15 14 14 14 14 14 14 13 11 10 9 8 7 5 6 7 10 12 11 11 12 2 17 20 20 16 11 7 6 4 2 2 8 10 6 3 4 6 4 3 3 4 6 5 6 7 6 5 7 9 11 10 10 9 7 7 8 7 7 8 7 8 9 8 8 8 6 6 9 8 8 7 6 5 5 6 10 15 18
17 16 16 15 16 17 16 16 16 16 15 14 14 14 14 14 13 11 10 9 8 8 5 6 9 13 12 9 13 8 10 17 21 22 16 8 5 4 3 4 2 6 5 3 4 6 4 2 4 2 2 4 5 6 6 7 7 6 9 11 10 9 9 8 7 7 7 6 7 6 7 9 6 5 4 3 4 8 5 4 6 5 5 4 5 8 10 14
16 16 16 15 15 17 17 16 16 16 16 15 15 15 15 14 13 11 10 8 7 7 5 6 7 9 7 4 10 5 13 14 14 14 12 7 4 4 3 3 3 3 1 1 3 9 6 2 4 2 2 6 7 7 8 9 9 9 10 10 10 9 9 7 5 5 5 6 6 7 7 7 6 6 3 3 4 7 5 4 3 3 4 4 5 7 7 11
15 16 16 16 15 16 17 16 16 15 15 16 16 16 16 14 13 11 9 7 7 7 5 5 6 6 4 3 5 6 10 10 10 7 7 8 5 5 6 3 3 1 2 2 2 7 7 5 4 3 7 10 8 9 9 9 10 11 11 11 10 8 10 9 7 5 5 5 4 5 7 7 8 5 2 3 4 4 4 3 2 2 2 2 4 6 6 9
15 15 16 16 16 15 17 17 16 16 15 15 16 17 16 14 12 10 8 7 6 7 6 6 8 6 6 6 2 10 13 9 7 5 4 6 6 6 11 10 5 2 1 2 4 6 7 6 5 6 8 9 9 9 10 10 11 13 11 11 10 9 9 9 8 6 5 7 6 5 6 5 5 3 2 2 3 3 3 1 1 2 2 2 3 5 7 8
14 15 15 16 16 15 16 17 17 16 15 15 16 16 16 14 11 9 7 7 7 8 7 8 9 5 5 3 6 15 17 8 4 8 5 5 6 8 12 12 11 8 4 5 6 7 8 7 6 7 8 9 11 10 12 12 11 12 11 10 10 10 8 8 8 6 7 8 6 7 6 3 4 3 2 2 3 3 3 2 1 1 1 2 2 4 6 8
14 14 14 15 16 16 16 16 17 16 16 16 16 16 15 13 10 8 7 7 9 9 9 10 11 10 10 3 10 17 18 11 7 3 5 4 5 4 7 10 9 7 8 8 7 8 8 7 6 8 11 11 12 12 14 13 10 11 11 9 10 11 9 8 9 7 7 6 4 5 5 4 6 4 3 3 3 3 3 3 2 1 1 2 2 4 5 7
14 14 14 14 15 16 15 16 17 16 16 16 16 16 14 11 9 7 7 8 11 12 11 11 11 11 13 5 11 15 14 10 3 5 5 5 3 3 6 7 7 8 11 10 7 7 7 6 7 9 10 9 10 12 14 14 13 10 8 9 11 11 7 9 11 8 7 6 5 6 4 4 7 4 2 3 3 3 3 3 2 2 2 2 2 4 5 7
15 13 13 14 15 15 15 16 16 16 15 15 16 15 13 10 8 6 6 9 12 13 11 10 9 5 6 4 6 8 7 5 7 4 4 7 5 4 4 5 8 8 10 12 9 8 8 8 9 9 8 9 9 11 12 12 11 8 7 10 12 8 7 8 10 9 7 6 6 5 4 3 5 4 2 2 3 4 4 3 2 2 3 3 3 4 5 7
16 14 13 13 14 15 15 15 16 16 15 15 15 14 11 9 7 6 6 5 8 14 12 10 9 6 4 6 4 5 7 8 5 4 4 9 10 7 5 4 7 5 6 11 11 10 9 10 10 9 10 11 9 9 11 10 11 12 11 13 13 10 6 5 6 7 7 6 5 5 5 4 6 4 2 2 3 4 5 3 2 2 2 2 2 4 4 7
16 15 13 12 13 14 15 15 15 15 15 14 14 12 10 8 7 6 5 4 5 11 11 8 8 7 4 4 4 5 6 4 7 10 8 7 8 9 9 6 4 3 6 8 10 9 7 8 10 11 11 10 7 8 12 13 14 16 16 16 15 14 8 5 6 6 5 5 6 7 6 7 8 4 3 3 2 3 4 4 2 2 1 1 2 4 4 5
16 15 14 12 13 13 14 15 15 15 15 14 13 11 7 7 7 6 8 6 6 5 4 5 5 4 3 4 5 7 8 8 9 7 5 4 7 8 7 6 6 7 7 8 10 8 6 8 11 12 9 7 8 10 13 14 15 16 17 16 15 14 9 4 4 3 3 6 7 6 5 7 9 6 5 3 2 2 3 4 4 3 2 2 2 5 7 7
16 15 14 12 12 13 13 14 15 15 14 14 12 9 6 5 3 3 8 6 3 4 3 4 4 3 4 6 6 5 4 5 6 6 7 7 6 6 7 8 10 10 9 10 11 7 8 12 11 10 8 7 10 12 14 15 15 16 16 15 15 11 8 6 5 4 4 6 5 7 6 7 9 8 7 5 3 4 2 3 4 4 3 3 4 5 8 10
15 16 14 12 12 12 13 13 14 14 14 13 11 10 7 3 1 4 4 1 4 6 4 4 6 1 9 12 8 5 3 5 7 4 8 7 6 8 9 6 9 12 12 10 8 7 10 11 8 7 8 10 12 13 14 14 15 16 15 15 14 10 8 8 7 5 5 5 6 7 7 8 10 8 7 6 5 5 3 2 2 3 4 3 4 5 6 11
15 16 14 12 12 12 12 13 14 13 13 13 10 9 7 3 3 2 2 1 5 8 7 6 6 2 6 8 7 5 5 6 3 1 10 8 7 9 8 7 10 11 10 9 9 9 9 9 6 7 10 11 13 14 13 14 15 15 13 13 13 9 7 8 6 5 6 8 8 6 8 9 10 10 8 6 5 5 3 2 1 1 2 2 3 5 6 11
14 16 14 13 12 11 11 12 13 12 12 12 9 8 6 4 3 1 3 2 4 6 6 6 3 3 4 5 6 6 6 6 4 3 9 9 9 9 6 8 10 8 7 7 9 9 10 10 8 8 11 12 13 13 12 13 13 13 14 12 12 10 9 9 9 8 9 10 9 7 9 9 11 11 10 8 6 6 5 3 2 1 1 2 3 6 7 11
14 15 15 13 12 11 11 11 12 12 11 10 9 9 7 4 4 3 4 4 4 7 6 4 1 4 8 7 4 6 7 7 6 6 11 10 10 7 6 7 6 7 9 9 10 10 9 9 9 10 11 11 13 13 12 12 12 13 14 12 11 11 11 12 13 13 11 11 11 9 6 7 11 12 11 10 8 7 6 4 2 1 1 2 3 7 9 11
13 15 15 13 12 12 11 11 11 11 9 6 7 9 7 5 5 4 5 6 6 6 6 7 5 9 12 7 5 6 6 5 6 9 13 12 10 6 7 7 6 8 9 10 11 8 7 9 10 11 10 11 12 11 9 9 11 13 12 10 11 12 13 15 16 16 14 11 9 11 9 6 14 15 12 11 9 9 7 5 3 0 1 2 3 6 10 13
13 15 15 13 12 11 11 11 11 9 7 6 8 7 6 6 4 4 4 5 5 5 4 6 7 10 10 8 8 5 4 8 7 10 12 12 9 6 7 8 8 8 6 8 8 6 7 9 9 11 12 11 10 10 10 10 12 14 12 11 13 14 16 17 17 16 15 12 7 11 14 6 12 15 12 12 11 10 8 6 4 1 2 4 5 7 10 13
12 14 15 13 11 11 10 11 10 9 7 7 7 5 5 6 3 3 3 3 1 3 3 6 8 9 6 7 8 2 4 10 5 8 12 11 8 5 6 9 10 8 7 8 8 8 6 4 8 12 11 8 9 11 12 12 13 15 15 14 16 16 17 18 17 17 15 9 7 12 15 5 7 12 12 13 12 11 9 6 4 1 2 4 7 8 10 12
11 13 15 14 11 10 10 10 10 10 8 7 6 4 4 5 2 2 3 4 1 2 4 6 7 7 6 6 7 3 5 8 5 7 10 8 8 9 7 9 8 10 10 9 9 8 6 8 13 10 6 7 11 12 12 13 14 16 16 16 17 17 17 16 15 18 15 6 6 11 13 8 5 11 12 13 14 12 9 5 4 2 1 4 9 9 10 12
12 13 14 13 12 10 10 10 10 9 9 7 4 3 4 4 2 2 4 4 1 1 4 6 4 4 7 7 5 3 5 7 6 8 8 5 9 11 6 5 8 11 10 8 9 8 10 15 13 3 4 9 11 13 13 13 15 15 15 16 17 17 17 15 13 16 12 5 10 11 13 11 3 7 13 14 12 10 8 5 3 0 2 6 10 10 9 11
12 12 13 13 12 10 10 10 9 9 9 6 4 3 3 3 3 4 5 4 3 3 4 6 5 5 6 6 3 3 7 7 5 7 7 4 4 6 4 5 10 11 8 5 6 8 8 8 5 2 7 12 11 14 14 11 12 12 12 14 14 13 12 9 8 8 4 4 11 13 12 4 4 6 10 11 8 6 7 5 2 1 3 5 9 10 10 14
13 12 12 12 11 10 10 10 9 9 8 6 4 3 4 4 5 7 5 5 4 2 4 5 6 7 5 2 3 7 9 6 5 7 6 2 2 5 7 7 10 10 6 3 8 11 5 3 3 4 9 14 14 16 15 11 11 11 12 12 10 9 7 4 2 1 1 4 8 12 9 6 11 10 10 12 9 7 7 4 2 2 6 7 10 13 11 14
12 12 12 12 11 9 9 9 9 9 8 5 4 3 4 5 5 7 6 5 2 3 7 7 5 6 5 1 4 10 9 5 6 8 4 1 2 4 6 6 6 7 8 10 12 11 5 2 1 4 9 14 15 15 14 12 13 13 11 11 9 6 5 3 3 2 1 4 8 12 9 4 12 13 13 12 9 8 7 4 3 6 8 8 13 14 11 12
12 11 11 10 10 8 8 8 8 8 7 5 3 3 5 8 8 8 5 5 4 6 8 6 5 7 5 3 6 11 8 2 5 7 3 1 3 3 3 7 7 6 9 12 8 5 8 4 1 6 11 13 13 12 12 13 14 11 9 10 8 6 4 3 2 2 3 6 10 12 7 4 10 11 12 8 7 6 4 4 5 7 9 12 14 13 11 13
12 10 10 10 9 8 7 8 8 7 6 4 3 3 6 9 10 9 5 4 6 7 7 5 6 8 4 2 5 6 6 4 6 7 4 2 3 4 2 4 7 7 8 10 8 7 9 4 4 8 10 10 11 11 11 11 8 8 10 8 7 6 6 7 5 5 7 8 7 5 4 10 11 10 8 6 6 5 4 6 8 9 12 16 17 14 13 14
12 10 9 9 8 7 7 7 7 6 5 3 4 6 8 8 8 8 6 6 8 7 8 7 4 6 5 2 2 2 3 7 6 6 5 3 2 3 3 5 4 7 9 9 8 8 9 6 6 8 10 12 14 12 11 10 7 9 11 9 8 9 9 8 7 7 7 6 2 5 10 11 11 9 7 5 4 4 6 8 12 13 12 13 15 16 15 15
13 10 9 8 7 7 7 7 6 5 4 4 5 6 9 9 9 7 6 7 7 5 9 8 3 4 6 5 4 4 5 7 5 7 7 3 2 2 5 5 5 7 8 6 6 6 9 11 9 7 8 11 15 13 11 13 12 9 9 11 12 8 4 4 5 5 5 4 2 7 10 7 6 7 5 4 5 7 9 11 13 13 13 13 13 16 15 16
10 10 8 7 7 7 7 7 6 5 5 5 6 7 8 9 7 6 7 8 5 4 7 8 5 4 4 6 8 8 7 7 7 8 7 3 2 3 4 4 6 9 5 3 6 6 8 12 8 5 5 8 12 11 9 13 13 9 8 11 11 6 6 7 5 4 5 4 2 5 10 7 7 7 4 7 9 10 12 14 14 12 13 15 15 16 16 16
8 8 8 6 6 8 8 8 6 5 5 5 7 8 6 7 5 5 8 7 4 4 6 6 5 5 5 8 10 8 6 7 8 8 6 5 3 2 4 4 5 7 6 3 7 7 6 8 6 5 6 9 10 9 8 10 11 9 8 8 8 7 8 9 6 5 6 4 4 2 3 7 8 7 5 9 10 11 13 15 15 12 13 14 15 17 17 18
7 8 9 8 8 9 8 8 6 6 6 6 9 8 5 5 5 5 8 9 5 3 4 7 5 5 8 9 8 7 7 7 7 7 6 5 3 2 4 6 5 4 5 5 6 6 5 6 9 9 9 8 6 8 8 10 9 9 9 8 10 10 9 8 4 4 6 4 3 5 2 5 5 5 7 10 10 12 14 14 14 14 14 16 16 16 18 19
7 7 9 11 10 9 9 8 6 7 8 7 8 6 5 8 6 5 10 12 9 3 4 8 5 4 8 9 8 9 9 8 7 7 6 5 5 3 1 4 8 6 5 5 4 3 4 7 10 11 11 5 4 5 8 11 10 8 7 8 10 11 11 8 2 5 8 7 3 5 2 6 6 4 7 11 11 12 15 14 14 15 16 17 17 17 19 19
5 5 11 13 11 10 9 7 6 7 8 7 6 5 7 10 7 5 9 10 7 2 4 7 5 5 7 8 8 9 9 10 9 7 5 4 5 4 3 8 13 7 2 3 3 3 5 7 8 10 9 2 3 6 10 14 13 8 8 9 9 10 10 8 6 7 11 9 5 7 4 5 6 5 8 13 12 11 13 13 15 16 16 17 17 17 20 19
5 7 13 13 9 10 8 5 6 8 8 6 5 5 6 7 6 5 6 6 4 3 5 7 6 7 6 6 8 8 9 10 7 5 6 5 5 7 9 12 10 4 2 4 4 6 7 6 8 12 7 4 2 8 6 13 13 8 7 10 10 10 9 7 6 7 9 8 6 7 2 7 5 7 11 13 13 13 13 14 16 17 16 17 17 16 19 19
7 8 11 9 7 9 6 3 6 8 8 8 6 5 6 6 6 7 6 5 5 5 6 6 7 8 6 6 7 7 8 8 4 4 6 5 5 7 10 10 3 2 3 5 3 5 6 4 9 12 5 4 3 5 1 8 13 9 8 11 12 14 13 8 5 6 5 4 6 7 4 3 4 12 14 13 14 14 14 15 17 18 16 17 18 18 18 19
8 7 9 10 9 8 6 5 8 9 8 10 9 8 8 7 7 8 7 6 6 6 6 6 7 8 7 6 7 7 7 7 6 7 6 5 7 5 5 5 3 0 6 9 6 3 4 5 8 9 5 3 4 5 5 9 12 9 11 14 13 14 14 10 6 5 4 5 7 7 8 11 16 17 17 15 14 16 16 16 17 17 17 17 17 18 18 20
6 4 6 10 10 8 6 6 8 8 8 10 9 7 8 7 6 8 8 6 6 7 6 7 7 7 6 6 7 7 7 7 7 8 7 7 7 5 5 5 3 5 9 9 7 4 5 7 7 6 7 8 8 8 8 10 13 12 13 14 13 13 13 8 5 5 6 10 8 2 6 18 20 18 18 15 15 18 18 17 17 17 18 18 16 16 19 22
4 3 5 9 8 6 7 8 8 6 6 9 8 7 7 7 7 8 8 7 7 7 6 7 7 6 6 6 6 7 7 7 7 7 8 9 7 7 9 6 5 8 10 7 4 3 5 8 7 6 8 9 10 11 10 9 13 14 13 13 14 14 11 5 4 6 7 9 8 4 9 17 16 15 15 13 16 19 18 17 17 17 18 18 17 17 21 23
5 4 7 9 9 6 7 10 10 7 7 9 9 9 9 9 8 9 10 9 7 5 5 5 5 5 6 6 6 7 6 8 9 8 8 9 7 6 7 5 6 9 9 5 3 5 7 9 8 7 10 12 12 11 9 8 11 14 13 12 13 12 8 4 5 7 8 9 11 13 16 15 13 14 13 13 17 19 18 17 16 17 18 16 17 19 20 22
9 10 10 10 9 9 9 12 13 12 12 12 11 11 10 10 9 9 10 9 7 6 6 6 6 6 6 6 6 7 7 9 10 8 7 7 6 6 6 6 7 8 7 4 4 6 8 8 8 9 11 13 10 8 9 9 10 13 13 13 13 10 7 6 7 7 9 12 12 14 15 10 10 12 12 14 18 19 18 17 15 17 16 13 16 21 21 21
14 15 14 13 11 10 10 12 12 12 11 11 11 11 10 9 9 9 10 10 10 10 7 5 6 6 7 7 7 7 8 9 9 8 7 7 7 7 7 6 6 6 6 5 6 7 8 9 9 9 12 13 8 5 6 7 9 13 14 14 13 11 8 8 10 9 10 12 11 11 14 11 10 11 13 16 18 19 18 16 15 16 14 13 17 20 20 21
16 17 17 16 16 15 11 10 11 12 12 10 11 12 10 6 7 9 10 9 10 10 7 5 7 8 7 7 8 9 8 6 7 8 8 9 8 8 8 7 6 6 6 8 9 9 9 10 10 10 12 11 7 5 7 9 12 13 14 14 13 10 9 9 11 11 10 11 12 12 13 12 10 12 15 17 17 18 17 15 15 15 14 14 15 17 20 23
14 15 16 17 18 17 12 11 12 13 13 11 11 12 10 7 7 9 9 8 7 7 6 6 9 9 7 7 9 10 8 6 7 8 8 9 10 10 11 10 9 9 9 10 11 9 8 10 11 10 11 11 9 10 11 13 12 8 7 8 9 8 9 11 12 12 12 12 11 10 10 10 12 14 16 17 17 16 16 14 13 16 17 15 15 20 25 24
Wind_Direction
359 357 356 353 354 356 355 353 350 349 348 346 347 347 347 348 349 352 353 352 354 354 359 3 4 12 24 51 61 55 42 307 228 54 27 14 23 29 45 49 44 62 60 110 98 56 42 23 356 42 80 71 3 250 252 274 263 238 248 251 258 272 277 342 335 358 2 272 284 321 330 327 287 276 292 284 275 264 277 269 243 246 253 255 253 258 265 266
358 356 355 353 353 354 354 354 350 349 347 345 346 346 347 348 350 352 352 354 354 355 1 6 15 23 43 66 57 46 24 345 341 20 7 349 344 347 356 24 13 44 46 68 83 53 36 302 280 37 52 256 260 272 267 280 271 240 252 251 266 324 342 345 334 315 332 301 298 305 306 314 288 281 283 281 280 279 284 270 252 254 239 231 248 275 278 273
357 356 355 353 352 352 354 353 349 348 346 344 344 346 349 349 352 352 353 356 353 357 2 14 27 38 66 70 52 49 35 30 36 359 360 344 333 334 339 4 359 38 56 73 87 88 149 164 265 0 333 247 242 296 286 241 269 277 251 256 295 339 340 315 316 325 311 290 293 298 295 290 294 291 268 277 280 278 287 268 264 249 215 220 276 307 311 303
357 355 354 354 353 352 353 353 351 348 345 346 345 348 350 350 353 352 354 354 354 1 5 22 35 57 81 73 64 64 52 57 96 311 353 339 332 332 333 358 348 21 55 94 85 82 113 79 6 351 312 240 252 281 258 251 281 279 249 273 320 326 325 314 304 299 289 288 294 291 284 282 291 274 237 281 268 261 294 253 254 241 227 291 297 298 303 305
357 355 354 353 353 352 353 355 354 350 349 348 348 350 351 351 352 351 352 351 356 2 10 27 41 65 80 85 82 79 61 62 240 329 352 329 334 334 329 352 345 22 71 113 82 51 351 0 342 338 297 254 273 266 243 273 285 270 256 277 313 304 296 328 334 287 281 290 300 282 274 288 286 262 258 272 248 263 334 313 271 261 280 306 302 294 293 297
356 355 354 353 354 353 354 357 356 354 351 350 351 351 351 351 350 350 350 349 356 4 18 31 46 64 70 80 87 82 64 19 294 341 341 326 335 328 318 342 344 35 81 76 65 19 325 333 320 310 283 267 281 273 272 281 279 276 261 268 302 291 264 301 327 281 288 292 291 275 269 290 289 275 268 252 242 265 323 338 309 293 297 310 299 292 296 300
354 355 354 353 355 354 355 356 356 355 352 352 352 351 351 350 349 348 348 350 357 6 24 44 59 72 70 67 69 57 54 305 312 343 327 322 325 314 309 330 340 303 50 43 51 20 347 351 322 309 253 270 264 261 302 286 273 274 271 289 300 292 274 282 287 277 289 285 277 272 272 283 277 275 265 252 262 266 288 306 319 313 297 298 300 302 301 296
351 353 353 354 354 354 356 355 354 354 352 353 352 353 352 349 350 348 348 351 354 6 31 66 69 82 81 72 64 48 52 260 297 332 322 316 313 304 304 305 332 32 44 16 48 67 16 343 323 322 268 297 278 257 301 292 264 250 271 319 306 293 292 273 273 279 278 275 276 273 269 271 260 270 275 263 273 280 287 287 292 304 297 290 290 304 301 287
349 350 352 353 354 354 355 355 353 352 352 354 353 354 351 349 350 347 349 351 354 8 38 80 82 95 95 86 61 39 267 249 284 312 313 313 311 290 303 347 27 60 47 342 315 38 4 335 287 302 291 299 295 274 290 288 267 250 273 303 293 286 290 272 277 280 268 269 274 264 263 267 249 255 272 259 277 300 301 289 281 283 307 314 281 297 302 287
348 347 349 351 353 352 353 355 352 350 351 352 352 352 351 349 348 346 351 352 359 7 35 92 105 107 108 89 54 20 269 268 285 297 308 316 307 299 347 350 351 69 45 331 340 315 302 346 292 288 335 294 287 285 280 277 272 274 289 293 280 277 279 272 272 271 271 273 262 248 269 281 246 235 264 239 290 316 319 302 287 286 298 302 298 320 326 300
347 346 345 348 351 351 351 353 352 350 349 350 351 350 350 348 345 347 350 355 8 10 39 98 110 113 134 103 49 345 272 282 287 295 315 326 328 349 31 289 270 94 22 329 347 300 281 287 269 213 335 297 277 287 283 271 266 279 296 291 278 271 264 252 251 265 274 275 259 246 269 284 259 256 254 211 292 315 316 314 279 275 282 271 303 327 335 310
345 345 344 344 348 350 349 351 350 350 349 349 349 348 349 347 345 347 351 7 20 20 41 76 84 99 128 85 42 313 293 290 288 287 290 319 351 354 13 330 284 128 220 225 219 289 291 271 259 238 292 294 282 292 285 263 267 285 289 281 280 270 249 236 240 257 265 265 244 236 269 271 250 249 214 217 289 311 302 311 263 247 275 287 317 324 328 311
341 343 345 341 344 349 349 349 348 349 349 348 347 347 348 346 347 351 360 23 31 36 46 61 70 83 95 89 351 326 334 308 299 341 317 347 7 331 348 356 341 355 246 252 228 265 284 277 286 279 286 291 279 287 291 280 276 282 278 269 279 277 251 229 231 240 252 254 240 253 279 258 216 196 186 236 302 312 274 272 286 274 276 309 330 326 335 325
340 340 344 340 340 345 348 348 347 348 348 346 348 349 349 348 353 360 18 43 43 45 49 58 62 54 93 109 325 343 345 339 15 6 343 339 344 317 322 331 339 345 324 312 294 291 298 293 297 288 290 292 284 290 297 292 275 271 277 273 276 280 261 231 228 234 252 255 243 255 271 235 204 230 259 263 301 294 253 228 262 301 275 302 331 320 331 331
342 337 340 340 338 341 346 347 347 348 345 347 350 350 353 353 0 17 44 57 50 53 57 68 77 52 39 340 308 338 351 24 65 326 293 288 317 316 286 292 318 318 302 314 308 299 302 301 302 292 297 293 279 282 288 291 288 283 294 291 278 285 282 235 223 241 255 249 231 246 270 253 222 233 263 252 265 262 245 239 230 254 283 296 315 314 318 320
343 337 338 339 337 338 344 346 346 348 345 347 351 353 358 358 12 41 61 63 54 58 65 70 83 60 34 330 288 331 5 35 19 291 318 327 292 267 246 245 269 275 287 310 311 303 306 308 301 286 302 302 273 282 292 299 308 294 283 276 266 271 257 211 221 248 244 239 247 239 249 229 195 201 253 240 243 241 238 241 222 244 267 274 302 310 315 315
342 337 337 338 336 336 341 344 346 347 344 347 352 356 360 4 26 48 60 70 60 53 53 45 51 49 19 348 308 342 2 322 309 305 296 325 340 302 265 254 285 283 282 291 290 308 310 291 291 284 303 308 290 302 300 300 313 296 264 265 270 266 237 225 242 245 227 245 256 226 233 211 173 188 242 224 237 239 235 240 239 253 262 271 288 293 316 329
342 339 336 336 336 335 337 342 345 345 345 349 354 359 3 11 33 50 51 59 52 43 31 16 23 16 5 15 345 293 287 287 327 20 310 327 352 347 343 309 290 272 278 287 276 295 306 282 280 278 287 293 293 308 301 306 321 312 303 295 294 292 275 293 285 239 221 250 244 228 248 201 165 172 181 192 227 227 226 230 230 252 279 289 292 286 308 338
341 340 337 336 334 334 336 339 343 345 345 349 357 2 4 12 23 25 19 2 21 30 12 355 8 2 346 357 338 273 285 338 20 9 347 328 326 331 338 328 322 309 296 300 279 281 297 284 282 278 279 285 287 304 306 312 316 309 308 303 301 302 299 319 295 243 212 256 254 243 236 184 172 176 178 204 221 195 210 215 219 253 284 341 356 344 334 341
339 340 340 336 333 334 335 336 341 344 344 349 357 0 357 12 26 349 323 341 12 5 337 317 320 326 299 292 315 297 301 356 15 347 319 318 321 325 313 287 306 310 287 287 282 279 287 286 293 294 289 287 294 306 306 306 307 304 303 301 298 304 322 337 282 245 226 267 262 235 225 195 186 190 190 199 211 187 199 204 207 227 257 296 332 352 346 335
336 339 343 337 332 334 334 336 341 342 344 348 353 1 5 22 56 284 300 332 342 298 244 278 293 223 255 294 320 317 289 324 335 297 295 334 347 325 307 285 279 287 287 281 274 279 295 288 290 299 300 298 301 305 304 303 305 301 299 298 294 299 329 323 278 271 266 270 252 220 225 208 187 188 195 194 203 202 196 200 209 224 247 295 310 325 334 322
335 337 343 339 333 332 333 336 339 342 343 344 349 2 15 12 322 248 288 299 235 271 270 327 6 312 288 322 354 48 83 304 301 284 299 335 7 326 318 308 281 289 299 295 292 299 294 288 287 293 300 303 304 304 303 302 303 301 296 295 294 298 314 299 273 268 257 251 247 216 209 202 183 185 196 196 210 209 203 217 221 238 234 256 307 317 322 307
334 335 340 340 333 331 334 335 339 343 340 341 349 0 7 348 330 250 272 219 225 285 295 297 339 300 289 326 330 358 26 315 292 252 285 301 343 320 306 309 300 296 295 294 306 300 289 303 309 298 305 306 304 305 304 304 302 300 299 299 296 287 289 294 280 268 255 251 260 233 213 200 177 182 192 191 206 203 189 191 157 240 254 245 291 313 332 309
334 332 338 339 333 330 333 334 337 341 337 341 351 359 359 341 352 296 285 299 223 266 288 280 277 213 274 311 294 338 1 286 268 302 289 300 322 303 290 311 301 284 289 298 304 293 287 307 315 308 314 310 305 307 307 309 305 301 307 307 302 294 289 297 292 276 258 249 260 250 223 199 179 184 187 185 194 193 180 168 133 85 10 8 327 320 339 320
334 330 337 339 333 329 332 334 334 338 341 344 344 348 355 348 347 336 314 320 231 228 261 292 193 225 302 342 344 345 336 285 264 273 282 308 329 310 290 304 289 280 298 309 312 300 284 298 314 314 312 306 307 308 308 311 307 306 308 298 301 309 298 292 292 287 272 254 249 246 237 203 191 190 184 184 182 185 185 173 179 114 28 6 344 325 335 328
334 328 334 338 333 327 330 335 334 342 346 337 331 338 347 348 341 345 330 301 251 217 250 268 242 267 294 321 308 307 319 290 253 262 283 311 335 332 307 305 290 288 302 310 302 287 284 303 312 313 313 312 311 309 315 323 310 305 309 299 296 301 296 291 289 292 288 273 247 231 239 209 197 198 188 184 180 180 182 173 191 221 346 320 330 321 327 328
332 326 330 336 333 326 328 333 334 342 336 319 329 335 341 342 340 3 346 285 233 194 244 262 260 284 289 290 301 304 315 308 279 265 283 304 318 313 301 310 304 289 311 327 301 278 297 307 310 316 320 317 316 317 321 325 308 299 308 309 296 291 292 290 284 283 278 279 282 244 240 213 193 204 190 180 182 176 176 173 166 191 297 318 323 314 325 327
330 324 326 332 332 325 324 326 327 332 323 316 328 330 338 334 327 18 345 306 234 176 243 275 279 303 314 299 309 320 320 327 313 279 296 313 335 339 283 292 306 296 306 319 307 309 317 321 327 325 322 311 314 322 319 316 304 296 305 304 297 296 293 289 286 288 287 286 295 254 243 235 163 189 192 183 178 172 178 179 156 192 304 331 309 308 332 326
326 322 321 325 328 322 319 320 321 325 321 319 326 326 338 328 316 11 291 284 325 211 254 292 293 326 352 310 292 282 311 327 321 309 318 318 332 344 300 282 301 299 294 281 279 301 302 299 313 324 341 323 316 320 314 309 300 297 306 302 297 295 289 291 288 294 311 315 266 243 237 252 146 163 192 186 178 180 181 173 161 185 309 311 300 315 338 329
322 320 317 320 324 320 316 317 317 320 319 319 323 320 332 336 339 315 267 258 288 237 307 340 326 320 345 331 295 279 311 316 310 316 327 310 319 337 318 298 321 308 295 275 266 277 280 295 308 320 353 335 325 325 317 306 303 304 309 305 301 296 288 289 276 281 308 302 266 248 223 239 198 168 198 183 173 182 172 167 165 100 309 306 322 333 332 325
318 317 315 316 320 320 316 314 314 317 320 317 312 317 345 356 312 268 259 269 274 271 318 355 8 338 336 342 332 335 326 317 313 322 330 308 305 347 339 324 336 318 294 268 281 288 269 291 327 273 311 336 337 329 324 313 312 316 315 312 315 311 299 292 268 269 293 271 271 253 231 245 97 159 184 158 147 154 152 164 154 34 324 336 338 323 324 328
313 313 314 314 315 320 315 311 314 314 318 314 302 325 357 344 280 249 266 302 291 299 310 312 345 349 334 307 323 341 327 310 316 325 331 306 292 350 344 332 338 330 314 301 319 318 263 199 9 304 319 348 347 330 329 329 326 328 321 316 325 322 316 327 309 285 227 266 279 260 269 35 99 138 137 134 136 125 120 115 100 359 345 350 320 305 315 320
311 310 311 311 314 319 311 308 313 312 313 308 297 330 330 305 272 262 298 347 16 6 334 306 308 327 324 293 337 340 323 302 340 336 316 285 315 337 349 358 352 336 329 319 319 324 301 203 64 338 336 345 347 341 338 335 327 327 324 317 324 324 319 343 348 8 308 291 301 281 277 87 121 131 123 132 127 103 98 74 17 336 334 325 319 323 321 309
311 310 309 308 310 314 309 306 306 307 310 296 293 334 296 281 290 300 343 38 21 344 337 325 309 309 304 282 323 347 351 348 8 354 319 280 338 323 352 22 7 341 328 322 326 327 307 294 13 351 343 338 345 350 337 326 319 322 330 319 327 343 322 329 359 347 312 291 303 301 282 159 136 127 123 125 104 95 84 34 353 341 338 326 329 331 318 320
312 309 307 306 307 310 309 306 303 305 304 286 289 303 279 282 303 319 349 19 349 342 334 314 308 314 311 277 318 0 25 0 349 349 330 297 353 348 312 339 353 354 337 327 348 335 303 318 27 351 342 334 340 346 331 327 326 331 337 327 339 348 302 297 303 279 276 275 289 339 84 129 133 124 119 118 105 91 47 6 338 337 339 330 327 313 295 310
311 310 310 305 305 310 308 305 302 300 291 276 289 283 274 289 318 328 335 330 323 332 330 310 299 322 334 351 346 350 344 339 337 333 321 289 313 16 333 301 321 353 341 328 343 338 313 327 353 338 334 331 333 341 343 349 349 335 338 339 335 317 287 294 305 283 278 277 266 80 93 118 127 115 104 111 95 26 355 345 338 335 326 316 320 317 306 308
311 313 312 308 311 315 310 303 297 296 284 261 270 274 277 297 322 329 326 328 326 334 339 333 334 344 337 342 5 7 339 341 342 324 326 311 246 356 341 303 285 317 329 324 326 333 318 312 318 334 336 333 334 342 1 4 357 346 343 343 339 321 290 321 325 304 305 296 198 135 137 149 143 119 88 57 19 351 345 341 330 318 313 313 316 317 314 313
308 311 312 315 321 319 312 302 290 288 278 263 281 292 289 291 305 320 317 329 348 351 344 338 337 346 338 335 349 351 333 330 337 328 328 340 300 317 339 312 308 325 344 340 310 314 320 308 312 350 339 332 343 351 5 1 357 358 346 344 353 351 333 340 338 322 322 323 327 145 144 126 105 110 68 19 8 353 348 342 323 307 321 332 326 318 315 315
305 316 313 310 317 319 316 301 287 283 271 268 287 295 303 301 304 325 324 335 359 350 350 346 331 338 338 330 333 335 325 321 331 333 335 346 328 323 344 306 301 338 357 341 302 307 328 310 305 348 331 327 356 16 12 359 356 357 354 357 1 343 328 332 331 325 315 304 321 328 109 80 80 91 35 8 3 348 343 341 331 327 332 325 318 320 323 323
295 314 312 307 313 318 315 300 288 284 272 272 286 293 314 314 323 348 330 335 343 307 346 355 329 329 340 335 329 332 333 318 314 320 322 329 323 315 334 299 281 325 329 317 309 309 327 299 291 315 317 318 19 42 16 7 2 357 1 6 0 351 340 323 314 352 335 308 322 325 3 87 84 67 23 359 356 351 343 340 337 337 332 319 317 329 330 327
289 313 310 305 309 310 309 304 299 289 280 284 300 313 296 266 280 329 315 329 348 303 325 352 334 325 336 334 333 333 330 309 297 306 306 315 325 306 226 289 303 308 293 309 326 306 321 309 292 308 319 333 66 31 7 22 24 22 26 13 0 359 353 332 324 33 348 318 320 312 310 90 72 50 18 353 352 349 335 333 334 330 327 325 330 336 329 325
285 306 298 293 299 305 306 304 298 287 284 294 306 313 292 271 283 316 297 316 357 338 324 343 327 320 325 324 329 331 326 311 297 300 308 323 331 309 278 309 314 309 260 310 320 285 310 314 290 297 312 37 81 328 1 35 37 39 42 28 12 7 6 350 334 353 335 315 309 296 281 92 65 28 15 357 349 338 325 330 332 324 324 329 333 334 326 321
279 285 287 285 291 300 305 310 301 284 272 278 291 297 302 296 299 306 292 306 328 299 320 335 322 323 330 327 327 322 319 316 299 291 311 321 331 320 315 314 311 304 286 287 288 297 306 314 309 303 286 175 230 296 349 40 30 22 19 13 4 352 351 341 317 321 317 317 336 318 275 118 75 4 6 357 348 343 338 335 326 321 327 330 330 329 324 319
287 284 285 290 299 296 297 309 301 292 278 277 292 304 300 291 284 282 286 305 310 297 307 322 323 326 330 328 324 314 312 317 302 297 308 309 323 324 318 317 330 93 298 272 265 319 316 315 323 315 285 181 233 274 324 24 12 5 343 336 335 327 326 330 314 294 295 334 349 313 275 134 1 342 352 353 348 346 340 330 322 323 329 328 327 325 322 325
306 312 306 311 315 291 275 279 284 291 293 292 302 307 291 284 283 276 275 287 296 293 293 301 312 318 317 313 318 312 302 299 293 298 305 303 312 313 304 323 5 13 275 264 249 292 306 302 314 318 322 338 325 313 325 340 344 339 321 322 327 325 327 335 326 297 299 327 315 293 294 293 294 312 335 346 344 337 329 326 326 327 325 324 323 323 327 330
316 346 310 308 317 306 291 288 282 287 290 285 292 300 290 285 280 271 274 285 285 281 289 290 290 302 313 311 319 316 299 286 281 284 292 296 301 298 289 306 307 272 279 277 255 249 286 292 287 279 294 315 320 312 308 318 324 320 318 326 332 329 327 330 320 306 317 318 302 267 324 306 297 310 331 338 334 328 325 325 326 324 321 321 322 326 332 326
304 342 299 287 298 313 309 287 263 262 292 293 295 303 301 298 291 280 280 287 285 284 295 289 276 293 315 311 312 314 304 299 292 283 289 293 286 287 292 293 279 276 290 297 278 271 293 292 285 272 277 292 304 302 294 303 314 312 316 330 334 329 324 318 293 287 304 309 282 265 325 322 319 328 332 330 325 323 323 324 323 322 320 322 327 330 330 321
261 292 288 277 268 269 298 296 275 267 297 303 294 290 289 288 289 287 286 286 286 283 291 293 275 285 309 311 310 309 302 305 303 291 292 296 287 281 283 277 279 289 295 292 269 277 284 284 288 292 290 293 299 297 290 297 308 307 310 323 327 325 318 311 298 279 275 281 278 294 318 328 330 327 322 324 323 318 318 318 318 319 320 325 330 326 321 320
255 257 261 266 259 248 269 287 283 281 291 293 289 285 283 283 284 284 282 279 278 273 269 280 282 283 296 298 296 299 298 301 302 299 300 300 288 279 274 261 267 287 296 286 260 269 279 282 288 296 300 299 295 288 287 293 299 299 301 306 314 319 313 309 318 302 279 281 290 302 312 325 343 332 317 319 318 313 313 314 314 319 322 327 328 322 320 325
251 254 257 258 257 260 276 285 286 291 293 289 288 283 271 272 282 282 272 266 273 275 260 255 278 289 293 289 283 288 295 296 293 288 289 290 282 280 276 261 260 277 280 272 271 275 276 281 296 309 304 296 291 288 291 295 294 291 290 290 297 312 316 311 320 319 299 299 309 308 303 316 347 338 318 316 315 311 312 314 316 321 323 322 322 323 329 334
257 258 260 261 262 266 275 285 289 291 289 283 281 276 267 270 287 288 283 274 273 279 275 267 274 280 288 289 277 270 271 283 290 284 280 279 276 276 275 271 283 291 272 261 276 289 286 287 305 315 303 297 302 308 309 311 299 283 279 285 289 299 314 317 322 324 317 311 310 299 296 310 329 326 318 314 310 311 315 316 319 320 314 312 317 325 332 332
272 266 261 263 266 266 267 279 282 280 282 283 278 277 284 295 292 292 296 287 269 273 285 279 272 277 289 288 279 273 265 254 254 258 264 271 270 270 273 273 276 282 276 271 281 291 290 289 300 308 303 302 305 307 312 311 297 273 272 294 291 289 310 322 325 327 324 314 302 286 289 315 327 322 315 311 312 316 315 316 322 315 302 298 306 315 322 325
Height
3136 3134 3132 3131 3129 3128 3127 3126 3124 3123 3122 3120 3119 3118 3117 3116 3115 3114 3113 3112 3111 3111 3110 3110 3109 3108 3108 3107 3107 3106 3106 3106 3105 3105 3106 3106 3107 3107 3108 3107 3108 3107 3107 3106 3106 3106 3107 3109 3111 3111 3110 3112 3114 3115 3115 3114 3114 3115 3115 3115 3114 3112 3110 3108 3107 3107 3108 3110 3111 3111 3111 3112 3113 3114 3114 3114 3114 3115 3114 3113 3115 3115 3116 3115 3111 3109 3108 3108
3136 3134 3133 3131 3130 3128 3127 3126 3125 3123 3122 3120 3119 3118 3117 3116 3115 3114 3113 3112 3111 3111 3110 3110 3109 3108 3108 3108 3107 3107 3107 3106 3105 3106 3107 3107 3107 3108 3108 3108 3108 3107 3107 3106 3105 3106 3110 3112 3113 3111 3111 3114 3116 3115 3115 3114 3114 3114 3114 3114 3113 3111 3110 3109 3108 3108 3109 3110 3110 3110 3112 3113 3113 3113 3114 3114 3114 3114 3113 3113 3114 3114 3115 3112 3109 3108 3106 3105
3136 3135 3133 3132 3130 3129 3127 3126 3125 3123 3122 3120 3119 3118 3117 3116 3115 3114 3113 3112 3112 3111 3111 3110 3109 3109 3108 3108 3108 3108 3107 3106 3106 3107 3108 3108 3108 3108 3109 3108 3108 3107 3107 3106 3105 3108 3111 3112 3112 3112 3113 3115 3116 3115 3115 3114 3113 3114 3113 3113 3111 3109 3110 3109 3108 3109 3109 3109 3109 3111 3112 3112 3113 3112 3113 3113 3114 3113 3112 3112 3112 3112 3113 3111 3109 3107 3104 3103
3136 3135 3134 3132 3130 3129 3127 3126 3125 3123 3122 3121 3119 3118 3117 3116 3115 3114 3113 3113 3112 3111 3111 3110 3109 3109 3109 3109 3109 3108 3108 3108 3108 3108 3108 3108 3108 3108 3109 3109 3108 3107 3107 3107 3106 3109 3111 3111 3112 3113 3114 3115 3116 3115 3115 3114 3113 3114 3113 3112 3110 3109 3111 3109 3108 3109 3108 3109 3110 3111 3112 3112 3112 3111 3111 3113 3113 3113 3111 3110 3109 3109 3110 3108 3107 3106 3103 3103
3136 3135 3134 3132 3131 3129 3128 3126 3125 3123 3122 3121 3119 3118 3117 3116 3115 3114 3114 3113 3112 3112 3111 3110 3110 3109 3109 3109 3109 3109 3109 3110 3108 3108 3109 3109 3108 3108 3109 3109 3108 3108 3108 3107 3107 3109 3112 3112 3113 3114 3115 3115 3116 3115 3114 3114 3113 3112 3112 3111 3111 3110 3111 3109 3109 3109 3108 3109 3110 3111 3112 3111 3111 3110 3111 3112 3111 3111 3109 3108 3108 3108 3107 3107 3107 3105 3103 3103
3136 3135 3134 3132 3131 3129 3128 3126 3125 3124 3122 3121 3120 3118 3117 3116 3115 3114 3114 3113 3112 3112 3111 3110 3110 3110 3110 3110 3110 3110 3110 3110 3108 3108 3109 3109 3108 3108 3109 3109 3108 3108 3108 3107 3107 3111 3113 3114 3114 3114 3115 3115 3115 3115 3113 3113 3112 3111 3111 3111 3111 3110 3110 3109 3109 3109 3108 3109 3110 3110 3111 3110 3110 3110 3110 3110 3110 3110 3109 3107 3107 3107 3108 3108 3107 3104 3102 3103
3136 3135 3134 3132 3131 3129 3128 3126 3125 3124 3122 3121 3120 3119 3117 3116 3115 3114 3114 3113 3112 3112 3111 3111 3110 3110 3111 3111 3111 3110 3111 3110 3108 3109 3109 3108 3109 3109 3109 3108 3108 3108 3107 3108 3109 3113 3114 3114 3115 3114 3115 3115 3114 3114 3113 3112 3112 3111 3111 3110 3110 3110 3109 3109 3109 3109 3108 3109 3109 3109 3109 3109 3109 3109 3109 3110 3110 3109 3108 3107 3107 3109 3109 3108 3107 3103 3101 3102
3136 3135 3134 3132 3131 3130 3128 3127 3125 3124 3123 3121 3120 3119 3117 3116 3115 3114 3113 3113 3112 3112 3111 3111 3111 3111 3111 3111 3111 3111 3112 3111 3107 3109 3109 3108 3108 3108 3108 3108 3108 3107 3108 3110 3111 3112 3113 3113 3115 3114 3114 3114 3113 3113 3112 3112 3111 3111 3110 3109 3110 3110 3109 3108 3108 3108 3108 3108 3108 3108 3108 3108 3108 3108 3108 3109 3109 3108 3107 3106 3107 3109 3108 3109 3109 3104 3100 3101
3137 3135 3134 3132 3131 3129 3128 3127 3125 3124 3123 3122 3120 3119 3118 3116 3115 3114 3113 3113 3112 3112 3112 3111 3111 3111 3111 3112 3112 3111 3113 3111 3108 3108 3109 3108 3108 3108 3107 3107 3108 3107 3110 3112 3112 3112 3113 3113 3113 3113 3113 3113 3112 3112 3112 3111 3111 3110 3110 3109 3109 3109 3109 3108 3107 3107 3108 3108 3108 3108 3107 3107 3107 3107 3107 3108 3108 3107 3106 3106 3107 3108 3107 3109 3109 3104 3100 3100
3137 3136 3134 3132 3131 3129 3128 3127 3125 3124 3123 3122 3120 3119 3118 3116 3115 3114 3113 3113 3112 3112 3112 3112 3112 3112 3112 3112 3112 3112 3113 3111 3109 3108 3108 3108 3107 3107 3107 3107 3108 3108 3110 3112 3112 3112 3112 3112 3112 3112 3112 3112 3112 3112 3112 3111 3110 3109 3109 3109 3108 3108 3108 3107 3107 3107 3107 3107 3107 3107 3107 3107 3106 3106 3107 3108 3108 3106 3107 3107 3107 3107 3107 3108 3107 3104 3102 3101
3137 3136 3134 3133 3131 3130 3128 3127 3125 3124 3123 3121 3120 3119 3118 3116 3115 3114 3113 3113 3113 3112 3112 3112 3112 3112 3112 3112 3112 3113 3113 3111 3110 3108 3107 3107 3107 3106 3107 3108 3108 3108 3110 3111 3113 3112 3110 3111 3111 3111 3111 3111 3111 3111 3111 3110 3109 3109 3109 3108 3107 3107 3107 3106 3107 3107 3106 3106 3106 3106 3106 3106 3106 3106 3106 3107 3107 3107 3107 3107 3107 3108 3108 3107 3106 3105 3103 3101
3137 3136 3134 3133 3131 3130 3128 3127 3125 3124 3123 3121 3120 3119 3118 3116 3115 3114 3113 3113 3113 3113 3112 3112 3112 3112 3112 3112 3112 3113 3113 3111 3109 3109 3108 3107 3106 3107 3107 3108 3107 3108 3109 3110 3112 3111 3110 3110 3109 3110 3111 3110 3110 3111 3110 3108 3108 3108 3108 3107 3106 3107 3106 3106 3106 3106 3106 3106 3105 3105 3105 3105 3105 3105 3105 3106 3107 3107 3107 3107 3106 3107 3107 3107 3106 3105 3103 3101
3137 3136 3134 3133 3131 3130 3129 3127 3126 3124 3123 3121 3120 3119 3117 3116 3115 3114 3114 3113 3113 3113 3113 3112 3112 3112 3112 3113 3113 3112 3111 3110 3109 3108 3108 3107 3108 3108 3107 3107 3107 3107 3108 3108 3109 3109 3109 3108 3108 3109 3109 3109 3110 3109 3108 3107 3108 3107 3107 3106 3106 3105 3105 3105 3105 3105 3106 3105 3104 3105 3104 3105 3105 3104 3104 3105 3106 3106 3107 3107 3106 3106 3107 3106 3106 3105 3103 3100
3136 3135 3134 3133 3131 3130 3129 3127 3126 3124 3123 3121 3120 3119 3117 3116 3115 3114 3114 3114 3113 3113 3113 3113 3113 3113 3112 3112 3112 3111 3110 3109 3108 3109 3108 3109 3109 3109 3108 3108 3108 3108 3108 3108 3108 3108 3108 3108 3108 3107 3108 3108 3108 3108 3107 3107 3107 3106 3106 3106 3105 3104 3104 3105 3105 3105 3105 3103 3103 3104 3103 3105 3105 3104 3105 3105 3106 3106 3106 3106 3107 3107 3106 3106 3106 3106 3103 3100
3136 3135 3134 3132 3131 3130 3129 3127 3126 3124 3123 3121 3120 3119 3117 3116 3115 3114 3114 3114 3114 3113 3113 3113 3113 3113 3113 3112 3111 3111 3111 3108 3109 3110 3110 3109 3110 3111 3111 3110 3109 3109 3109 3108 3108 3108 3108 3107 3107 3107 3108 3108 3108 3107 3106 3106 3105 3105 3105 3105 3105 3104 3103 3104 3105 3105 3104 3103 3103 3103 3103 3104 3105 3104 3104 3105 3105 3106 3106 3106 3106 3106 3106 3106 3106 3106 3104 3101
3135 3134 3133 3132 3131 3129 3128 3127 3126 3124 3123 3121 3120 3118 3117 3116 3115 3115 3114 3114 3114 3114 3114 3114 3114 3113 3113 3114 3112 3112 3111 3110 3111 3111 3110 3109 3110 3110 3110 3110 3110 3110 3109 3108 3108 3108 3107 3107 3107 3107 3107 3108 3108 3107 3106 3106 3105 3104 3104 3104 3105 3104 3104 3104 3104 3104 3103 3102 3102 3102 3102 3102 3103 3103 3104 3104 3105 3105 3105 3105 3105 3106 3106 3106 3106 3106 3104 3101
3135 3134 3133 3132 3131 3129 3128 3127 3126 3124 3123 3121 3120 3118 3117 3116 3116 3115 3115 3115 3115 3115 3115 3115 3114 3113 3114 3115 3114 3113 3113 3112 3112 3111 3110 3109 3109 3109 3109 3109 3110 3110 3109 3108 3108 3108 3108 3108 3108 3107 3107 3107 3107 3107 3106 3106 3105 3103 3102 3102 3102 3102 3103 3103 3103 3103 3102 3101 3100 3100 3101 3101 3101 3102 3103 3103 3104 3105 3105 3105 3105 3105 3105 3105 3105 3105 3104 3100
3135 3134 3132 3131 3130 3129 3128 3127 3126 3124 3123 3121 3120 3118 3118 3117 3116 3116 3116 3115 3115 3115 3115 3115 3114 3114 3115 3115 3115 3115 3114 3113 3111 3110 3110 3109 3108 3108 3109 3109 3109 3110 3109 3108 3108 3108 3109 3109 3108 3108 3108 3107 3107 3107 3105 3104 3104 3102 3102 3101 3100 3100 3100 3101 3102 3102 3101 3100 3100 3099 3100 3100 3100 3101 3102 3102 3103 3104 3104 3104 3104 3104 3104 3104 3104 3104 3103 3100
3135 3134 3132 3131 3130 3129 3128 3126 3125 3124 3123 3121 3120 3119 3118 3117 3117 3116 3116 3116 3115 3114 3115 3116 3115 3115 3116 3115 3116 3115 3113 3111 3110 3110 3110 3110 3109 3109 3109 3109 3109 3109 3109 3109 3109 3109 3108 3108 3108 3107 3107 3106 3106 3107 3105 3104 3103 3102 3101 3099 3098 3098 3098 3099 3100 3099 3099 3100 3099 3098 3099 3099 3099 3100 3101 3101 3102 3102 3103 3103 3104 3104 3104 3104 3103 3102 3101 3099
3134 3133 3132 3131 3130 3128 3127 3126 3125 3124 3123 3122 3120 3119 3118 3117 3117 3117 3116 3116 3115 3115 3117 3118 3116 3117 3117 3116 3115 3114 3112 3110 3110 3111 3112 3111 3110 3109 3109 3110 3109 3109 3109 3110 3109 3108 3108 3108 3107 3107 3106 3106 3106 3106 3104 3103 3102 3101 3100 3098 3098 3098 3097 3097 3098 3098 3099 3098 3097 3097 3098 3097 3098 3099 3100 3101 3101 3101 3102 3102 3103 3103 3103 3103 3103 3102 3100 3099
3134 3133 3132 3131 3129 3128 3127 3126 3125 3124 3123 3122 3120 3119 3118 3118 3118 3118 3117 3116 3116 3116 3117 3117 3116 3116 3116 3115 3114 3112 3111 3111 3112 3113 3111 3111 3110 3110 3110 3110 3110 3110 3109 3109 3108 3107 3108 3107 3107 3107 3106 3105 3105 3105 3104 3102 3101 3100 3099 3098 3097 3097 3097 3096 3097 3097 3097 3096 3096 3096 3096 3096 3097 3099 3100 3100 3101 3101 3101 3101 3102 3102 3103 3102 3102 3102 3101 3099
3133 3132 3131 3130 3129 3128 3127 3126 3124 3123 3122 3121 3121 3119 3119 3118 3118 3118 3117 3116 3117 3117 3116 3116 3115 3115 3114 3113 3113 3112 3111 3112 3113 3113 3110 3110 3111 3111 3111 3110 3110 3109 3108 3107 3107 3107 3107 3106 3106 3106 3105 3105 3104 3104 3103 3102 3101 3099 3098 3097 3097 3096 3096 3096 3096 3096 3096 3096 3095 3095 3095 3095 3096 3098 3099 3100 3100 3100 3100 3101 3101 3101 3101 3102 3101 3101 3101 3098
3133 3131 3131 3129 3128 3127 3126 3125 3124 3123 3122 3121 3121 3119 3119 3119 3118 3117 3117 3117 3117 3116 3116 3116 3116 3117 3116 3113 3112 3111 3112 3113 3114 3113 3110 3110 3111 3111 3110 3110 3109 3108 3107 3107 3107 3106 3107 3106 3105 3105 3105 3104 3104 3103 3102 3101 3100 3099 3098 3097 3097 3096 3096 3096 3095 3095 3095 3095 3094 3094 3094 3094 3095 3097 3098 3099 3100 3100 3100 3100 3100 3100 3100 3100 3100 3100 3099 3097
3133 3131 3130 3129 3128 3127 3126 3125 3124 3123 3122 3121 3120 3120 3119 3119 3118 3117 3117 3116 3117 3117 3117 3116 3115 3116 3116 3114 3112 3111 3112 3113 3113 3112 3110 3110 3110 3109 3109 3109 3108 3107 3107 3107 3106 3106 3106 3105 3104 3104 3104 3104 3103 3102 3101 3100 3099 3099 3098 3097 3096 3096 3095 3095 3094 3094 3094 3094 3094 3094 3093 3094 3095 3096 3097 3098 3099 3099 3099 3099 3100 3100 3100 3100 3100 3099 3098 3096
3132 3131 3129 3128 3127 3126 3125 3125 3124 3123 3122 3121 3120 3120 3119 3118 3118 3117 3117 3116 3116 3116 3116 3114 3114 3114 3113 3112 3112 3112 3113 3112 3112 3111 3109 3109 3109 3108 3108 3108 3108 3107 3107 3106 3105 3105 3106 3105 3104 3104 3104 3104 3102 3102 3101 3100 3099 3098 3097 3097 3096 3095 3094 3094 3093 3093 3093 3092 3093 3093 3093 3094 3094 3096 3097 3097 3098 3099 3099 3099 3099 3099 3099 3100 3100 3099 3097 3095
3131 3130 3129 3128 3127 3126 3125 3124 3123 3122 3122 3121 3121 3120 3119 3119 3118 3117 3116 3116 3116 3116 3115 3113 3113 3113 3113 3112 3112 3112 3112 3111 3111 3111 3109 3108 3108 3107 3107 3107 3107 3107 3106 3105 3105 3105 3105 3104 3103 3103 3103 3102 3102 3101 3100 3100 3099 3098 3097 3096 3096 3095 3094 3094 3093 3093 3092 3092 3092 3092 3094 3095 3094 3094 3096 3097 3098 3098 3099 3099 3099 3099 3099 3099 3099 3098 3097 3095
3131 3129 3128 3127 3126 3125 3124 3124 3123 3122 3122 3121 3120 3120 3119 3119 3118 3117 3117 3116 3115 3115 3115 3114 3114 3113 3113 3113 3111 3111 3112 3110 3110 3110 3108 3108 3107 3107 3107 3106 3107 3106 3105 3105 3104 3103 3104 3104 3103 3102 3102 3101 3101 3101 3099 3099 3099 3097 3097 3096 3095 3095 3094 3094 3093 3092 3092 3090 3090 3091 3092 3093 3093 3093 3095 3096 3097 3097 3098 3098 3098 3099 3099 3098 3098 3097 3096 3094
3130 3129 3127 3127 3126 3125 3124 3123 3122 3122 3121 3121 3120 3120 3119 3119 3118 3118 3118 3117 3114 3114 3115 3113 3113 3112 3112 3112 3111 3111 3112 3111 3110 3109 3108 3107 3106 3107 3107 3106 3106 3106 3106 3106 3104 3103 3103 3103 3102 3101 3101 3102 3101 3100 3099 3099 3098 3096 3096 3095 3094 3094 3093 3092 3092 3091 3090 3088 3088 3090 3091 3091 3092 3093 3094 3095 3096 3097 3097 3097 3098 3099 3099 3098 3097 3096 3095 3094
3129 3128 3127 3126 3125 3124 3123 3123 3122 3122 3121 3120 3120 3119 3119 3119 3118 3118 3119 3118 3114 3113 3114 3113 3111 3112 3112 3112 3111 3111 3112 3111 3110 3109 3108 3107 3106 3107 3107 3106 3106 3105 3105 3105 3104 3103 3102 3101 3101 3101 3101 3101 3100 3099 3098 3098 3097 3095 3094 3094 3093 3092 3091 3091 3090 3090 3090 3088 3088 3090 3090 3090 3091 3093 3093 3093 3095 3096 3096 3096 3097 3098 3099 3098 3096 3095 3095 3094
3128 3127 3126 3125 3124 3124 3123 3122 3122 3121 3121 3120 3119 3119 3119 3118 3118 3119 3119 3117 3113 3112 3113 3112 3112 3112 3112 3112 3111 3111 3112 3111 3110 3109 3108 3108 3107 3106 3106 3105 3106 3104 3103 3103 3103 3103 3101 3099 3100 3101 3100 3100 3099 3098 3097 3097 3096 3095 3094 3093 3092 3091 3089 3089 3089 3089 3089 3088 3087 3088 3088 3087 3090 3093 3092 3092 3094 3095 3096 3097 3097 3098 3098 3097 3096 3095 3094 3092
3127 3126 3125 3124 3124 3123 3122 3121 3121 3120 3120 3120 3119 3118 3118 3118 3118 3119 3117 3113 3112 3112 3112 3112 3112 3112 3112 3112 3112 3111 3112 3111 3109 3109 3108 3108 3108 3107 3106 3106 3106 3104 3102 3102 3102 3102 3101 3099 3100 3100 3099 3099 3099 3097 3096 3096 3095 3094 3093 3093 3091 3089 3088 3088 3087 3088 3090 3089 3086 3086 3086 3084 3088 3092 3092 3092 3095 3096 3096 3097 3097 3097 3097 3096 3096 3093 3092 3091
3126 3125 3124 3124 3123 3122 3121 3121 3120 3120 3119 3119 3119 3118 3118 3118 3118 3117 3113 3111 3112 3112 3112 3112 3112 3112 3112 3112 3111 3111 3111 3110 3109 3108 3108 3108 3108 3107 3107 3107 3106 3104 3102 3102 3102 3101 3100 3100 3101 3099 3098 3098 3098 3097 3095 3095 3095 3094 3094 3093 3091 3090 3089 3089 3088 3088 3089 3090 3087 3086 3085 3084 3087 3091 3092 3093 3096 3096 3096 3097 3097 3096 3096 3096 3094 3092 3091 3091
3124 3124 3123 3123 3122 3121 3120 3120 3119 3119 3119 3119 3119 3118 3118 3119 3117 3114 3112 3111 3112 3112 3112 3113 3112 3112 3112 3111 3111 3111 3110 3110 3109 3108 3108 3108 3108 3108 3107 3107 3107 3106 3105 3104 3102 3101 3100 3099 3100 3100 3099 3099 3099 3097 3095 3095 3095 3094 3094 3093 3092 3091 3091 3091 3091 3089 3089 3090 3088 3086 3087 3088 3089 3091 3093 3094 3095 3096 3096 3097 3097 3096 3096 3095 3093 3091 3090 3089
3123 3123 3122 3122 3121 3121 3120 3119 3119 3118 3118 3119 3119 3118 3119 3119 3116 3114 3113 3113 3113 3113 3113 3112 3112 3112 3111 3111 3111 3110 3109 3109 3109 3108 3108 3108 3108 3108 3108 3108 3107 3107 3107 3105 3103 3102 3101 3099 3099 3100 3101 3100 3099 3098 3097 3096 3095 3094 3094 3093 3093 3093 3093 3092 3091 3091 3091 3090 3087 3086 3087 3090 3090 3092 3093 3094 3095 3096 3096 3096 3096 3095 3095 3094 3092 3090 3088 3087
3122 3122 3121 3121 3120 3120 3119 3119 3118 3118 3118 3118 3118 3118 3119 3118 3117 3115 3114 3113 3113 3113 3112 3112 3112 3111 3111 3110 3111 3110 3110 3110 3109 3109 3109 3108 3109 3109 3108 3108 3108 3107 3107 3106 3104 3103 3102 3100 3100 3101 3101 3100 3099 3099 3097 3096 3094 3094 3093 3093 3094 3094 3093 3091 3090 3091 3091 3089 3087 3087 3089 3091 3091 3093 3094 3095 3095 3096 3096 3096 3095 3094 3094 3094 3092 3089 3087 3086
3121 3121 3120 3120 3120 3119 3119 3118 3118 3118 3118 3118 3118 3118 3118 3117 3117 3116 3114 3113 3113 3112 3112 3111 3111 3111 3111 3110 3110 3110 3110 3110 3109 3109 3108 3108 3108 3109 3109 3108 3109 3109 3108 3107 3106 3105 3103 3101 3101 3102 3101 3099 3099 3098 3097 3096 3095 3094 3093 3093 3093 3093 3093 3091 3089 3088 3088 3088 3089 3090 3091 3093 3093 3094 3095 3095 3095 3095 3095 3095 3094 3093 3092 3091 3090 3087 3086 3085
3120 3120 3120 3119 3119 3119 3118 3118 3118 3117 3117 3117 3117 3118 3118 3117 3117 3116 3114 3113 3113 3112 3112 3111 3111 3111 3111 3111 3111 3111 3110 3109 3109 3109 3108 3108 3108 3108 3109 3108 3108 3109 3108 3107 3107 3106 3105 3103 3101 3102 3101 3099 3098 3098 3097 3096 3096 3095 3095 3094 3092 3091 3092 3091 3090 3088 3087 3086 3088 3089 3091 3093 3093 3094 3095 3095 3095 3095 3094 3094 3093 3091 3089 3089 3088 3086 3084 3082
3119 3119 3119 3119 3119 3119 3118 3118 3117 3117 3117 3117 3117 3117 3117 3117 3117 3115 3114 3113 3113 3113 3113 3112 3112 3112 3112 3111 3111 3111 3110 3109 3110 3109 3108 3108 3107 3108 3109 3107 3107 3108 3108 3108 3108 3107 3106 3104 3101 3101 3101 3100 3098 3098 3097 3097 3096 3096 3096 3094 3093 3092 3092 3091 3091 3091 3089 3088 3087 3086 3089 3092 3093 3094 3095 3095 3094 3094 3094 3093 3091 3089 3089 3088 3086 3084 3082 3079
3119 3119 3119 3119 3119 3118 3118 3117 3117 3117 3116 3117 3117 3117 3117 3117 3117 3115 3113 3114 3114 3113 3113 3113 3112 3112 3112 3112 3112 3111 3110 3110 3110 3110 3109 3108 3108 3107 3107 3107 3107 3108 3108 3108 3108 3106 3106 3105 3102 3101 3100 3099 3099 3099 3099 3099 3097 3097 3096 3095 3095 3095 3094 3092 3092 3092 3091 3090 3088 3086 3087 3092 3093 3094 3095 3094 3094 3093 3093 3092 3091 3089 3088 3086 3083 3081 3079 3077
3119 3119 3118 3118 3118 3118 3118 3117 3117 3116 3116 3116 3117 3117 3117 3117 3117 3115 3113 3113 3114 3113 3114 3113 3113 3113 3113 3112 3112 3111 3111 3111 3111 3110 3109 3109 3108 3107 3106 3106 3107 3108 3108 3108 3107 3106 3106 3105 3103 3101 3100 3099 3099 3099 3099 3099 3098 3097 3097 3096 3096 3095 3094 3093 3092 3093 3092 3091 3090 3088 3089 3092 3093 3093 3094 3094 3093 3093 3092 3091 3090 3088 3086 3083 3081 3080 3078 3076
3119 3119 3118 3118 3118 3118 3117 3117 3116 3116 3116 3116 3116 3116 3116 3116 3116 3116 3114 3113 3113 3113 3114 3114 3113 3113 3113 3112 3112 3111 3111 3111 3110 3110 3109 3109 3109 3107 3105 3105 3106 3107 3107 3107 3107 3106 3105 3105 3104 3102 3100 3099 3098 3098 3099 3099 3098 3098 3098 3098 3097 3096 3095 3093 3091 3092 3093 3091 3091 3090 3090 3092 3093 3092 3093 3093 3092 3092 3092 3089 3088 3087 3084 3081 3080 3079 3077 3075
3119 3119 3118 3118 3118 3117 3117 3116 3116 3116 3116 3116 3116 3115 3115 3115 3115 3116 3115 3114 3114 3114 3114 3114 3113 3113 3113 3113 3112 3112 3111 3110 3110 3109 3109 3109 3108 3106 3105 3105 3105 3106 3107 3107 3107 3105 3105 3105 3103 3102 3100 3099 3098 3098 3099 3098 3097 3098 3098 3098 3098 3097 3097 3096 3094 3094 3094 3092 3091 3090 3089 3091 3093 3092 3092 3092 3091 3090 3089 3087 3086 3084 3082 3080 3079 3078 3076 3074
3118 3118 3117 3117 3117 3117 3117 3116 3116 3116 3116 3115 3115 3115 3115 3115 3115 3115 3115 3115 3115 3115 3114 3114 3113 3112 3113 3112 3112 3112 3111 3110 3109 3109 3109 3109 3108 3106 3106 3106 3105 3106 3107 3107 3106 3105 3105 3105 3103 3101 3099 3099 3098 3098 3099 3098 3098 3099 3099 3098 3098 3097 3098 3098 3096 3096 3095 3092 3091 3090 3089 3091 3093 3091 3091 3092 3090 3088 3087 3086 3084 3082 3080 3079 3078 3077 3075 3072
3118 3117 3117 3117 3117 3117 3116 3116 3116 3116 3116 3114 3114 3114 3115 3115 3114 3114 3114 3114 3115 3114 3114 3114 3113 3112 3112 3112 3112 3112 3111 3110 3110 3110 3109 3109 3109 3108 3106 3105 3105 3106 3106 3106 3106 3105 3105 3105 3104 3101 3098 3098 3098 3097 3098 3098 3099 3100 3099 3099 3098 3097 3097 3097 3096 3096 3095 3093 3094 3093 3090 3089 3090 3090 3090 3090 3089 3087 3087 3085 3082 3080 3079 3077 3076 3074 3072 3071
3117 3117 3117 3116 3116 3116 3116 3116 3116 3116 3115 3114 3114 3114 3114 3114 3113 3113 3113 3114 3114 3114 3113 3113 3113 3112 3112 3112 3112 3111 3111 3111 3110 3110 3109 3109 3109 3108 3107 3106 3106 3106 3105 3105 3105 3105 3105 3105 3105 3102 3099 3098 3098 3098 3099 3099 3100 3100 3099 3099 3098 3097 3096 3096 3095 3095 3094 3093 3094 3093 3090 3087 3087 3088 3089 3088 3087 3087 3085 3083 3081 3080 3078 3076 3074 3073 3071 3070
3117 3117 3117 3116 3116 3115 3115 3115 3115 3114 3114 3114 3114 3113 3113 3113 3113 3112 3112 3113 3113 3112 3112 3113 3113 3112 3111 3111 3111 3111 3111 3111 3110 3109 3109 3109 3109 3108 3107 3107 3107 3106 3105 3104 3104 3105 3105 3105 3104 3104 3102 3101 3101 3100 3100 3100 3099 3099 3098 3098 3097 3097 3096 3096 3096 3095 3095 3094 3093 3093 3091 3088 3087 3087 3088 3087 3087 3086 3084 3082 3080 3078 3076 3074 3072 3071 3070 3069
3117 3117 3117 3116 3115 3115 3115 3115 3114 3113 3113 3113 3113 3113 3113 3113 3112 3111 3111 3111 3111 3111 3111 3111 3111 3111 3111 3111 3110 3110 3110 3110 3109 3109 3109 3108 3108 3108 3107 3107 3107 3105 3104 3104 3104 3104 3105 3104 3103 3103 3102 3102 3101 3100 3100 3100 3099 3098 3097 3097 3097 3096 3096 3096 3096 3096 3095 3095 3092 3091 3090 3089 3088 3088 3087 3087 3086 3085 3083 3081 3079 3077 3075 3073 3071 3070 3069 3067
3116 3116 3116 3115 3115 3116 3116 3114 3113 3113 3112 3113 3113 3113 3112 3112 3112 3111 3110 3110 3109 3110 3110 3110 3110 3111 3111 3110 3110 3110 3110 3109 3109 3108 3108 3108 3107 3107 3107 3106 3106 3105 3104 3105 3105 3104 3104 3103 3103 3102 3102 3101 3100 3099 3099 3099 3098 3096 3096 3096 3096 3095 3095 3095 3096 3095 3095 3094 3092 3090 3089 3088 3087 3087 3087 3086 3086 3083 3081 3080 3078 3076 3073 3072 3071 3069 3067 3064
3114 3114 3113 3114 3114 3114 3114 3114 3113 3113 3113 3112 3112 3111 3111 3111 3111 3111 3110 3109 3108 3108 3109 3109 3110 3110 3110 3110 3109 3109 3109 3109 3108 3107 3107 3107 3107 3107 3106 3106 3105 3105 3104 3104 3104 3104 3103 3102 3102 3102 3101 3100 3099 3099 3098 3098 3097 3095 3094 3095 3095 3095 3095 3094 3094 3094 3094 3093 3092 3090 3090 3088 3087 3086 3086 3086 3085 3082 3080 3078 3076 3074 3072 3071 3070 3067 3064 3061
3112 3111 3112 3112 3113 3113 3113 3113 3113 3112 3112 3112 3111 3111 3110 3110 3110 3109 3108 3108 3108 3107 3107 3108 3109 3109 3109 3109 3109 3109 3108 3108 3107 3107 3107 3107 3106 3106 3106 3105 3105 3105 3104 3104 3104 3103 3102 3102 3101 3101 3100 3098 3097 3097 3097 3097 3096 3095 3093 3093 3093 3093 3093 3093 3093 3093 3092 3091 3090 3090 3089 3087 3087 3086 3086 3085 3083 3081 3078 3076 3074 3073 3071 3070 3069 3065 3062 3060
3109 3110 3110 3110 3111 3111 3112 3113 3113 3112 3112 3112 3111 3110 3108 3108 3108 3108 3107 3107 3107 3107 3106 3107 3108 3108 3107 3108 3108 3107 3107 3107 3107 3106 3106 3106 3106 3105 3105 3104 3104 3104 3104 3104 3103 3102 3102 3101 3101 3101 3099 3097 3096 3095 3095 3095 3094 3093 3092 3092 3092 3092 3092 3091 3091 3091 3090 3090 3089 3088 3087 3086 3086 3086 3085 3084 3081 3079 3077 3075 3073 3071 3070 3069 3067 3064 3061 3059
3108 3108 3108 3108 3108 3109 3110 3111 3112 3112 3111 3111 3110 3109 3108 3107 3107 3107 3106 3106 3106 3106 3106 3107 3106 3106 3106 3106 3106 3105 3104 3105 3105 3105 3105 3105 3105 3105 3104 3104 3104 3104 3104 3103 3102 3101 3101 3101 3101 3101 3099 3097 3096 3095 3094 3094 3092 3091 3091 3091 3091 3091 3090 3090 3090 3089 3088 3087 3087 3086 3086 3086 3085 3085 3084 3082 3079 3077 3075 3073 3071 3069 3067 3066 3064 3062 3060 3058